TimeCDT,TemperatureF,Dew PointF,Humidity,Sea Level PressureIn,VisibilityMPH,Wind Direction,Wind SpeedMPH,Gust SpeedMPH,PrecipitationIn,Events,Conditions,WindDirDegrees,DateUTC
12:53 AM,64.9,54.0,68,29.73,10.0,South,15.0,-,N/A,,Overcast,170,2013-04-08 05:53:00
1:53 AM,63.0,54.0,72,29.73,10.0,South,13.8,-,N/A,,Clear,180,2013-04-08 06:53:00
2:53 AM,63.0,54.0,72,29.70,10.0,South,12.7,-,N/A,,Clear,180,2013-04-08 07:53:00
3:53 AM,63.0,54.0,72,29.70,10.0,South,8.1,-,N/A,,Mostly Cloudy,170,2013-04-08 08:53:00
4:53 AM,63.0,54.0,72,29.71,10.0,South,8.1,-,N/A,,Mostly Cloudy,170,2013-04-08 09:53:00
5:53 AM,62.6,53.6,72,29.70,10.0,South,17.3,-,N/A,,Clear,180,2013-04-08 10:53:00
6:53 AM,61.0,55.0,81,29.69,10.0,South,13.8,-,N/A,,Clear,190,2013-04-08 11:53:00
7:53 AM,64.0,55.9,75,29.71,10.0,South,17.3,26.5,N/A,,Clear,180,2013-04-08 12:53:00
8:53 AM,66.9,57.0,70,29.74,10.0,South,17.3,25.3,N/A,,Clear,190,2013-04-08 13:53:00
9:53 AM,66.9,57.0,70,29.75,10.0,South,15.0,24.2,N/A,,Overcast,180,2013-04-08 14:53:00
10:53 AM,68.0,57.0,68,29.75,10.0,South,20.7,27.6,N/A,,Overcast,190,2013-04-08 15:53:00
11:53 AM,68.0,57.0,68,29.75,10.0,SSE,18.4,24.2,N/A,,Overcast,160,2013-04-08 16:53:00
12:53 PM,71.1,57.9,63,29.73,10.0,South,18.4,26.5,N/A,,Overcast,190,2013-04-08 17:53:00
1:53 PM,72.0,57.9,61,29.71,10.0,South,16.1,23.0,N/A,,Mostly Cloudy,170,2013-04-08 18:53:00
2:53 PM,73.0,57.9,59,29.70,10.0,South,16.1,-,N/A,,Mostly Cloudy,180,2013-04-08 19:53:00
3:53 PM,73.0,59.0,61,29.69,10.0,South,12.7,-,N/A,,Overcast,180,2013-04-08 20:53:00
4:53 PM,70.0,57.9,65,29.70,10.0,South,16.1,-,N/A,,Overcast,180,2013-04-08 21:53:00
5:53 PM,68.0,57.0,68,29.71,10.0,SSE,8.1,-,N/A,,Overcast,160,2013-04-08 22:53:00
6:53 PM,68.0,57.9,70,29.71,10.0,SE,10.4,17.3,N/A,,Overcast,130,2013-04-08 23:53:00
7:53 PM,66.0,57.9,75,29.71,10.0,SE,8.1,-,N/A,,Overcast,130,2013-04-09 00:53:00
8:53 PM,64.9,57.9,78,29.71,10.0,SE,8.1,-,N/A,,Mostly Cloudy,130,2013-04-09 01:53:00
9:53 PM,64.9,57.9,78,29.71,10.0,SE,10.4,-,N/A,,Partly Cloudy,130,2013-04-09 02:53:00
10:53 PM,64.9,57.9,78,29.72,10.0,SE,8.1,-,N/A,,Scattered Clouds,130,2013-04-09 03:53:00
11:53 PM,64.9,57.9,78,29.72,10.0,ESE,6.9,-,N/A,,Overcast,120,2013-04-09 04:53:00